• în Republica Moldova
  • Lista ţărilor
  • Pe 7 zile
  • Temperatura apei
  • Hartă satelitară
  • Meteo pe hartă
  • Widget-uri
  • user-avatar
    Intrare

    Meteo pe oră la Vlorë

    Astăzi, 21 Mai, Luni

    Timp Temperatura Precipitaţii Vânt Presiune Umiditate
    00:00 +21°C° 0 mm 2 m/s 759 mmHg 75%
    01:00 +20°C° 0 mm 2 m/s 759 mmHg 73%
    02:00 +20°C° 0 mm 2 m/s 759 mmHg 74%
    03:00 +19°C° 0 mm 2 m/s 759 mmHg 75%
    04:00 +19°C° 0 mm 2 m/s 759 mmHg 76%
    05:00 +20°C° 0 mm 2 m/s 759 mmHg 73%
    06:00 +23°C° 0 mm 2 m/s 759 mmHg 71%
    07:00 +24°C° 0 mm 2 m/s 759 mmHg 68%
    08:00 +26°C° 0 mm 2 m/s 759 mmHg 63%
    09:00 +27°C° 0 mm 1 m/s 759 mmHg 58%
    10:00 +28°C° 0 mm 1 m/s 759 mmHg 53%
    11:00 +29°C° 0 mm 1 m/s 759 mmHg 51%
    12:00 +30°C° 0 mm 2 m/s 759 mmHg 49%
    13:00 +30°C° 0 mm 2 m/s 759 mmHg 50%
    14:00 +29°C° 0 mm 2 m/s 759 mmHg 50%
    15:00 +29°C° 0 mm 2 m/s 759 mmHg 51%
    16:00 +29°C° 0 mm 2 m/s 759 mmHg 52%
    17:00 +27°C° 0 mm 2 m/s 759 mmHg 58%
    18:00 +26°C° 0 mm 1 m/s 759 mmHg 63%
    19:00 +24°C° 0 mm 1 m/s 759 mmHg 69%
    20:00 +24°C° 0,1 mm 1 m/s 759 mmHg 70%
    21:00 +23°C° 0,1 mm 1 m/s 759 mmHg 71%
    22:00 +23°C° 0,1 mm 1 m/s 760 mmHg 72%
    23:00 +22°C° 0 mm 1 m/s 760 mmHg 72%

    Mâine, 22 Mai, Marţi

    Timp Temperatura Precipitaţii Vânt Presiune Umiditate
    00:00 +22°C° 0 mm 1 m/s 760 mmHg 72%
    01:00 +22°C° 0 mm 1 m/s 760 mmHg 72%
    02:00 +21°C° 0 mm 1 m/s 760 mmHg 73%
    03:00 +21°C° 0 mm 1 m/s 760 mmHg 74%
    04:00 +20°C° 0 mm 2 m/s 760 mmHg 74%
    05:00 +21°C° 0 mm 2 m/s 760 mmHg 71%
    06:00 +24°C° 0 mm 2 m/s 761 mmHg 68%
    07:00 +25°C° 0 mm 3 m/s 761 mmHg 66%
    08:00 +26°C° 0 mm 3 m/s 761 mmHg 61%
    09:00 +27°C° 0 mm 3 m/s 761 mmHg 57%
    10:00 +29°C° 0 mm 3 m/s 761 mmHg 52%
    11:00 +29°C° 0 mm 3 m/s 761 mmHg 52%
    12:00 +29°C° 0 mm 3 m/s 761 mmHg 51%
    13:00 +30°C° 0 mm 3 m/s 761 mmHg 51%
    14:00 +29°C° 0 mm 3 m/s 761 mmHg 52%
    15:00 +29°C° 0 mm 3 m/s 761 mmHg 53%
    16:00 +29°C° 0 mm 3 m/s 761 mmHg 54%
    17:00 +27°C° 0 mm 2 m/s 761 mmHg 61%
    18:00 +26°C° 0 mm 2 m/s 761 mmHg 68%
    19:00 +24°C° 0 mm 2 m/s 761 mmHg 74%
    20:00 +23°C° 0 mm 2 m/s 762 mmHg 74%
    21:00 +23°C° 0 mm 2 m/s 762 mmHg 75%
    22:00 +23°C° 0 mm 2 m/s 762 mmHg 75%
    23:00 +21°C° 0 mm 3 m/s 762 mmHg 74%

    Poimâine, 23 Mai, Miercuri

    Timp Temperatura Precipitaţii Vânt Presiune Umiditate
    00:00 +21°C° 0 mm 3 m/s 762 mmHg 74%
    01:00 +21°C° 0 mm 3 m/s 762 mmHg 74%
    02:00 +21°C° 0 mm 3 m/s 762 mmHg 75%
    03:00 +20°C° 0 mm 3 m/s 762 mmHg 75%
    04:00 +20°C° 0 mm 3 m/s 762 mmHg 75%
    05:00 +21°C° 0,2 mm 3 m/s 762 mmHg 76%
    06:00 +21°C° 0,2 mm 4 m/s 762 mmHg 77%
    07:00 +22°C° 0,2 mm 5 m/s 763 mmHg 78%
    08:00 +23°C° 0,2 mm 5 m/s 763 mmHg 75%
    09:00 +23°C° 0,2 mm 5 m/s 763 mmHg 73%
    10:00 +25°C° 0,2 mm 5 m/s 763 mmHg 71%
    11:00 +26°C° 0 mm 5 m/s 762 mmHg 64%
    12:00 +27°C° 0 mm 4 m/s 762 mmHg 57%
    13:00 +28°C° 0 mm 4 m/s 762 mmHg 49%
    14:00 +28°C° 0 mm 4 m/s 762 mmHg 51%
    15:00 +27°C° 0 mm 3 m/s 762 mmHg 53%
    16:00 +27°C° 0 mm 3 m/s 761 mmHg 55%
    17:00 +25°C° 0 mm 3 m/s 761 mmHg 60%
    18:00 +24°C° 0 mm 2 m/s 761 mmHg 66%
    19:00 +23°C° 0 mm 2 m/s 761 mmHg 71%
    20:00 +21°C° 0 mm 2 m/s 762 mmHg 73%
    21:00 +20°C° 0 mm 2 m/s 762 mmHg 75%
    22:00 +20°C° 0 mm 2 m/s 762 mmHg 76%
    23:00 +20°C° 0 mm 2 m/s 762 mmHg 77%

    24 Mai, Joi

    Timp Temperatura Precipitaţii Vânt Presiune Umiditate
    00:00 +19°C° 0 mm 2 m/s 761 mmHg 77%
    01:00 +19°C° 0 mm 2 m/s 761 mmHg 77%
    02:00 +19°C° 0,1 mm 3 m/s 761 mmHg 76%
    03:00 +19°C° 0,1 mm 3 m/s 761 mmHg 76%
    04:00 +18°C° 0,1 mm 3 m/s 761 mmHg 76%
    05:00 +20°C° 0 mm 3 m/s 761 mmHg 72%
    06:00 +21°C° 0 mm 3 m/s 761 mmHg 68%
    07:00 +23°C° 0 mm 4 m/s 761 mmHg 65%
    08:00 +25°C° 0 mm 4 m/s 761 mmHg 62%
    09:00 +26°C° 0 mm 5 m/s 761 mmHg 59%
    10:00 +27°C° 0 mm 5 m/s 761 mmHg 56%
    11:00 +27°C° 0 mm 5 m/s 760 mmHg 56%
    12:00 +28°C° 0 mm 6 m/s 760 mmHg 57%
    13:00 +28°C° 0 mm 6 m/s 760 mmHg 57%
    14:00 +27°C° 0,1 mm 6 m/s 760 mmHg 61%
    15:00 +27°C° 0,1 mm 6 m/s 759 mmHg 65%
    16:00 +26°C° 0,1 mm 6 m/s 759 mmHg 69%
    17:00 +24°C° 0,1 mm 6 m/s 759 mmHg 75%
    18:00 +23°C° 0,1 mm 5 m/s 759 mmHg 81%
    19:00 +21°C° 0,1 mm 5 m/s 759 mmHg 87%
    20:00 +21°C° 0 mm 5 m/s 759 mmHg 89%
    21:00 +20°C° 0 mm 5 m/s 760 mmHg 90%
    22:00 +20°C° 0 mm 4 m/s 760 mmHg 91%
    23:00 +20°C° 0 mm 4 m/s 760 mmHg 89%

    25 Mai, Vineri

    Timp Temperatura Precipitaţii Vânt Presiune Umiditate
    00:00 +19°C° 0 mm 5 m/s 759 mmHg 88%
    01:00 +19°C° 0 mm 5 m/s 759 mmHg 86%
    02:00 +19°C° 0 mm 5 m/s 759 mmHg 84%
    03:00 +19°C° 0 mm 5 m/s 759 mmHg 82%
    04:00 +19°C° 0 mm 5 m/s 759 mmHg 80%
    05:00 +20°C° 0 mm 5 m/s 759 mmHg 75%
    06:00 +22°C° 0 mm 5 m/s 759 mmHg 70%
    07:00 +25°C° 0 mm 5 m/s 760 mmHg 65%
    08:00 +26°C° 0 mm 5 m/s 760 mmHg 61%
    09:00 +28°C° 0 mm 4 m/s 760 mmHg 56%
    10:00 +29°C° 0 mm 4 m/s 760 mmHg 52%
    11:00 +29°C° 0 mm 5 m/s 759 mmHg 51%
    12:00 +30°C° 0 mm 5 m/s 759 mmHg 51%
    13:00 +30°C° 0 mm 6 m/s 759 mmHg 50%
    14:00 +30°C° 0,1 mm 6 m/s 759 mmHg 52%
    15:00 +30°C° 0,1 mm 6 m/s 759 mmHg 55%
    16:00 +29°C° 0,1 mm 6 m/s 759 mmHg 57%
    17:00 +28°C° 0,1 mm 6 m/s 759 mmHg 62%
    18:00 +26°C° 0,1 mm 6 m/s 759 mmHg 67%
    19:00 +23°C° 0,1 mm 5 m/s 759 mmHg 72%
    20:00 +23°C° 0 mm 5 m/s 759 mmHg 72%
    21:00 +22°C° 0 mm 5 m/s 760 mmHg 72%
    22:00 +22°C° 0 mm 4 m/s 760 mmHg 72%
    23:00 +21°C° 0 mm 4 m/s 760 mmHg 71%

    26 Mai, Sâmbătă

    Timp Temperatura Precipitaţii Vânt Presiune Umiditate
    00:00 +21°C° 0 mm 4 m/s 760 mmHg 69%
    01:00 +21°C° 0 mm 4 m/s 760 mmHg 68%
    02:00 +21°C° 0 mm 4 m/s 760 mmHg 68%
    03:00 +20°C° 0 mm 4 m/s 760 mmHg 68%
    04:00 +20°C° 0 mm 4 m/s 760 mmHg 69%
    05:00 +21°C° 0 mm 4 m/s 760 mmHg 67%
    06:00 +23°C° 0 mm 4 m/s 760 mmHg 66%
    07:00 +25°C° 0 mm 4 m/s 760 mmHg 64%
    08:00 +27°C° 0 mm 4 m/s 760 mmHg 58%
    09:00 +28°C° 0 mm 4 m/s 760 mmHg 52%
    10:00 +30°C° 0 mm 4 m/s 760 mmHg 45%
    11:00 +30°C° 0 mm 5 m/s 760 mmHg 44%
    12:00 +32°C° 0 mm 6 m/s 760 mmHg 43%
    13:00 +32°C° 0 mm 6 m/s 760 mmHg 42%
    14:00 +32°C° 0 mm 6 m/s 760 mmHg 44%
    15:00 +32°C° 0 mm 6 m/s 760 mmHg 46%
    16:00 +32°C° 0 mm 7 m/s 760 mmHg 48%
    17:00 +29°C° 0 mm 6 m/s 760 mmHg 54%
    18:00 +27°C° 0 mm 6 m/s 760 mmHg 59%
    19:00 +26°C° 0 mm 6 m/s 760 mmHg 65%
    20:00 +24°C° 0 mm 6 m/s 761 mmHg 66%
    21:00 +23°C° 0 mm 5 m/s 761 mmHg 67%
    22:00 +23°C° 0 mm 5 m/s 761 mmHg 68%
    23:00 +22°C° 0 mm 5 m/s 761 mmHg 69%
    Arată mai mult